RH
84 88 91 92 91 90 90 90 95 90 88 84 74 78 82 82 81 86 91 87 90 89 79 79 77 75 85 90 89 79 77 82 77 82 81 75 74 75 79 76 71 65 64 64 63 62 59 58 54 52 48 45 43 37 31 30 32 33 35 37 37 35 34 35 35 35 33 32 30 29 28 28 31 39 46 49 47 45 49 54 54 55 60 59 41 26 34 46 55 62 62 62 61 63 65 65 63
86 90 93 94 90 90 91 89 94 91 85 73 70 82 84 83 87 93 94 93 94 82 71 70 72 73 78 82 83 79 75 76 75 81 77 68 72 77 78 76 75 73 70 64 60 60 56 52 50 49 45 43 40 36 32 31 35 36 36 36 36 37 38 37 34 32 29 27 26 27 29 34 41 46 48 47 45 47 53 55 53 57 62 58 41 27 36 49 56 62 61 62 61 61 63 64 63
88 89 90 94 89 89 91 87 91 88 74 63 71 84 87 92 96 96 94 94 87 75 70 69 72 73 77 80 81 82 75 70 71 73 70 66 69 74 77 74 73 73 71 63 54 50 46 44 45 44 43 40 37 36 35 37 41 40 36 35 38 41 42 41 36 32 30 30 31 34 39 42 45 45 44 44 46 51 55 53 53 60 62 59 46 31 37 49 56 60 57 59 62 62 64 62 61
86 86 88 94 90 90 92 91 92 84 66 63 75 87 93 97 99 94 86 86 83 75 72 72 73 72 84 87 77 77 70 67 71 68 65 65 65 69 74 73 72 68 63 59 53 48 45 44 44 42 43 40 38 37 37 42 44 39 33 33 38 43 45 45 43 38 38 40 40 41 43 43 43 43 43 46 51 54 53 52 56 61 61 60 54 39 35 46 56 58 56 58 61 62 64 62 60
84 85 89 89 90 94 93 93 93 81 68 70 78 89 98 98 100 92 80 82 83 78 73 76 75 73 84 82 79 82 72 67 71 70 66 63 63 65 70 71 69 63 56 55 53 51 45 43 44 43 43 40 37 35 37 44 44 36 30 32 37 43 50 51 47 43 44 45 43 42 42 43 45 47 48 50 54 54 52 54 59 61 60 59 57 48 37 44 55 57 57 59 60 62 65 64 60
82 85 88 84 88 94 91 87 83 76 74 80 80 88 98 94 94 88 81 82 85 83 77 81 78 75 77 74 77 78 71 70 70 72 68 61 61 63 65 66 63 58 54 55 54 49 44 43 44 43 42 36 33 34 38 44 45 38 33 39 41 41 52 53 47 45 45 45 44 45 47 49 50 50 50 50 52 53 53 55 58 59 58 57 57 55 44 45 55 58 58 59 61 64 67 66 63
82 86 87 86 89 92 92 85 75 73 77 84 89 95 93 84 83 84 82 82 86 87 82 83 83 82 78 74 77 72 69 71 69 73 68 60 60 61 61 60 57 54 55 58 56 48 43 43 44 43 38 32 31 33 39 44 46 43 40 46 46 41 46 51 49 48 49 49 49 51 52 52 51 50 50 49 50 52 53 54 56 56 55 54 56 58 52 50 57 61 60 57 58 62 66 67 66
80 88 90 90 91 92 90 81 74 78 80 83 89 90 85 81 82 83 85 86 86 86 83 81 85 90 81 77 82 75 71 70 69 71 67 60 58 60 59 58 55 52 53 56 56 48 43 44 45 41 34 30 30 31 37 44 46 45 44 47 50 50 50 52 50 49 51 52 52 52 54 51 50 51 50 50 51 52 53 54 53 54 52 51 54 57 57 56 60 63 63 59 58 60 61 61 61
77 89 97 92 88 90 83 77 75 79 84 87 87 80 79 83 82 84 92 96 90 86 85 81 87 92 82 79 81 76 73 70 69 70 67 61 58 59 57 56 54 49 49 52 52 47 44 45 43 37 31 29 28 28 34 42 45 43 46 50 54 54 52 52 49 49 51 52 51 50 53 52 50 50 49 51 52 52 51 51 52 53 51 50 53 55 57 59 61 63 64 64 63 61 57 57 58
79 86 94 90 88 83 70 69 71 77 87 88 85 79 80 82 82 91 99 100 94 88 85 84 91 92 83 81 79 76 74 70 70 70 68 64 60 59 56 53 50 46 47 48 48 46 45 45 41 34 30 29 26 25 31 40 43 42 45 52 57 53 49 49 48 48 47 50 53 51 51 50 48 49 51 52 51 51 49 48 49 49 48 49 51 53 55 56 59 61 64 65 66 64 59 61 61
83 83 86 88 87 75 64 65 67 76 82 78 78 77 80 82 84 96 100 98 93 87 82 82 89 85 79 77 75 74 70 68 70 69 68 67 62 58 56 53 49 47 47 48 47 47 46 43 38 32 29 27 24 23 31 40 43 41 42 49 57 54 47 46 47 46 44 48 53 51 50 49 49 51 52 51 50 48 44 43 45 46 48 50 50 51 52 54 58 58 60 62 66 66 64 65 60
80 88 89 91 86 73 70 70 69 76 80 80 81 76 79 81 85 97 100 95 88 84 82 84 86 77 74 71 70 71 68 69 69 68 67 67 64 58 56 53 51 48 48 49 47 49 47 41 35 31 28 24 22 23 32 43 43 41 39 42 47 48 46 44 48 48 46 48 50 49 50 51 51 51 49 46 46 44 44 44 45 47 48 47 43 41 42 47 52 53 57 61 64 65 65 65 61
74 96 98 95 85 77 77 70 69 73 79 86 81 74 77 80 87 97 100 96 89 89 86 84 84 77 74 70 69 71 69 71 70 68 66 66 64 59 57 53 52 51 50 49 47 49 45 40 35 28 24 21 21 25 35 44 44 41 38 37 37 41 44 43 50 52 49 49 48 49 51 52 49 46 44 44 44 44 46 47 48 49 44 40 40 41 43 46 51 54 57 61 63 64 64 65 63
68 88 95 96 85 80 79 68 66 67 75 81 74 73 78 81 87 93 98 98 96 96 90 84 83 80 75 69 69 69 68 74 72 67 65 65 62 59 57 53 54 52 49 48 47 47 42 45 43 29 25 24 21 27 39 45 44 41 37 36 35 38 43 45 51 53 50 49 49 51 50 49 45 39 41 44 43 41 42 44 46 45 39 38 44 49 51 54 55 55 55 58 61 63 63 63 63
60 73 83 94 86 78 74 68 64 63 74 79 73 73 77 81 84 91 98 100 96 90 86 83 83 86 80 71 70 66 67 73 71 67 66 64 61 59 55 54 57 52 49 49 49 49 46 52 51 35 30 27 23 31 41 44 44 40 36 36 36 39 45 48 51 52 50 49 49 50 48 45 38 34 40 42 38 31 30 38 42 38 36 42 47 49 52 55 56 56 57 59 61 62 62 62 63
51 60 75 88 81 72 66 67 64 63 74 77 73 71 74 79 82 89 96 95 87 79 83 84 82 88 86 79 77 73 68 67 69 69 68 66 63 60 56 56 57 53 54 52 50 54 53 52 52 42 33 32 33 36 41 44 43 39 35 34 37 43 46 49 52 51 48 48 47 46 45 38 33 38 46 47 42 34 28 31 35 35 40 46 50 51 52 53 55 57 58 60 62 61 60 60 61
43 52 77 86 74 67 64 67 66 70 77 75 73 72 72 76 80 83 83 84 79 75 81 79 75 78 79 79 79 79 75 67 69 72 72 71 66 61 58 56 55 58 62 56 50 55 55 49 49 48 42 45 48 42 40 42 40 37 34 34 39 44 46 47 48 47 45 48 46 44 42 33 36 48 52 52 53 49 41 36 36 39 45 50 53 53 50 49 51 52 52 55 56 57 58 59 59
30 46 77 80 71 69 70 75 71 75 82 77 74 74 74 74 79 80 77 81 76 71 72 70 68 66 67 69 69 76 80 72 68 72 72 73 68 62 58 55 55 60 64 59 53 52 52 49 48 51 51 52 50 48 45 39 36 35 31 34 41 42 44 45 44 45 47 48 46 43 41 36 43 52 53 55 58 59 55 52 50 50 52 54 55 53 50 48 48 46 45 47 47 50 54 53 51
20 46 74 69 74 77 72 76 74 75 79 78 74 75 83 81 77 78 81 81 76 70 67 67 66 61 60 60 60 68 79 77 69 69 68 67 65 60 57 55 55 58 60 58 51 45 43 48 52 52 54 52 48 53 50 35 32 33 33 36 41 42 42 44 45 46 48 48 45 44 43 43 49 54 55 57 58 60 60 60 60 58 58 58 57 55 53 51 50 49 45 46 47 49 51 50 47
18 41 69 68 74 80 71 69 71 71 70 79 77 72 85 85 74 77 86 84 79 78 70 69 68 62 59 56 57 62 73 78 69 65 63 62 62 61 59 56 53 54 56 52 46 40 34 42 49 46 47 48 50 56 49 39 40 43 43 41 42 45 43 44 46 46 49 47 44 44 44 46 52 54 54 55 55 57 58 60 62 63 63 61 61 59 57 55 53 53 51 51 53 51 53 55 54
25 27 58 72 71 78 76 69 67 66 65 76 75 71 82 80 70 72 84 85 81 86 76 69 70 64 60 55 55 59 67 74 68 63 61 60 62 61 60 56 53 52 53 48 41 35 31 38 42 37 41 48 55 60 53 51 57 57 53 47 46 51 49 47 46 47 49 45 44 45 42 45 52 53 53 54 55 57 60 63 65 66 65 62 61 60 59 59 58 58 57 56 57 56 57 58 58
31 20 39 58 69 80 77 67 64 64 64 68 70 77 86 76 68 67 79 87 82 89 79 68 69 64 63 57 54 57 61 67 65 61 58 60 63 61 60 55 52 52 52 47 37 29 29 37 38 38 47 51 55 60 56 56 60 60 58 54 52 54 54 49 47 49 49 45 45 43 40 45 49 50 53 55 56 60 63 66 68 67 67 65 63 62 62 63 64 65 63 60 60 61 60 59 58
26 28 31 37 63 83 76 67 65 65 64 69 75 82 82 74 74 69 79 91 83 85 77 67 68 62 65 62 57 57 57 61 61 59 56 58 63 61 59 55 53 51 48 45 34 26 27 34 39 46 52 51 55 58 54 51 52 57 60 58 55 54 52 48 48 50 49 45 42 38 40 45 48 50 52 53 55 58 63 68 69 69 69 69 67 65 65 66 68 69 66 62 61 61 61 61 60
20 34 36 32 56 77 75 72 68 66 64 69 73 73 74 75 82 74 77 90 80 77 72 66 68 62 64 64 61 60 58 60 61 63 57 56 60 60 60 56 54 50 46 44 31 22 27 33 43 53 53 52 56 52 48 47 48 54 57 57 57 53 49 47 50 50 47 42 37 37 40 42 45 48 50 51 53 56 63 68 69 69 68 69 68 65 67 68 69 70 66 61 58 59 59 61 59
14 21 28 29 51 73 74 71 68 67 65 65 64 68 76 76 81 76 77 88 77 73 72 67 66 62 63 64 63 61 60 62 64 66 58 56 60 58 61 58 55 51 45 43 27 18 26 33 44 53 54 54 52 47 46 47 49 55 55 55 54 49 48 49 49 46 42 37 32 36 40 42 45 47 48 49 51 56 64 67 67 68 67 67 65 63 66 69 71 69 65 60 56 56 57 60 60
19 13 19 23 44 69 72 70 69 68 67 66 64 70 77 74 75 75 78 85 75 71 72 65 63 62 63 64 62 58 60 61 61 63 59 61 64 59 61 59 57 51 44 42 26 16 24 32 41 50 52 51 48 47 49 48 52 55 54 55 51 46 49 48 44 40 36 33 30 33 39 44 47 49 49 49 52 59 66 68 66 66 66 64 61 60 63 66 69 67 64 59 54 54 53 57 61
31 17 16 18 35 63 71 71 70 68 67 65 66 70 74 72 70 72 76 77 71 68 67 62 61 63 64 62 61 59 60 60 59 61 60 62 64 60 59 57 55 49 44 42 26 16 22 29 39 45 44 45 47 47 46 50 52 49 49 51 47 46 47 41 37 35 33 33 30 31 38 43 49 52 50 51 59 64 66 67 66 65 62 60 58 58 60 61 62 61 60 56 53 53 49 54 62
30 20 16 16 24 49 66 70 68 68 67 63 66 67 71 69 64 73 75 70 70 67 62 61 60 61 62 62 60 59 60 60 60 60 58 57 58 57 54 51 49 46 46 40 24 17 20 25 36 42 37 35 41 39 37 44 46 42 42 42 40 42 43 39 37 36 38 37 33 35 39 42 47 51 51 56 63 65 66 66 66 65 62 60 58 57 57 58 58 56 55 52 49 50 48 55 65
15 14 15 20 24 37 55 66 65 64 63 63 65 61 67 66 61 74 74 65 70 70 65 64 63 60 58 59 58 56 57 58 58 57 56 55 54 53 50 49 47 45 46 41 27 17 18 25 32 38 35 29 34 33 30 37 41 43 46 43 41 40 38 37 37 39 43 40 35 39 41 43 48 51 54 59 62 62 63 64 65 66 64 60 56 54 54 55 55 52 50 48 47 50 52 60 69
8 12 13 21 28 30 43 57 61 61 60 62 63 56 59 60 62 74 68 61 67 68 68 67 67 64 56 55 56 55 54 53 54 53 55 56 53 51 50 49 47 45 45 41 30 19 18 24 29 35 35 29 31 32 29 35 41 43 48 49 46 45 41 41 41 44 47 43 41 43 44 47 51 54 57 60 61 60 61 62 64 66 66 59 50 48 49 51 52 51 48 45 48 56 58 64 71
10 17 18 21 24 24 35 49 54 57 58 61 62 55 54 55 64 72 62 58 63 63 66 66 67 68 61 55 53 54 53 51 52 52 54 55 54 52 50 49 48 46 43 38 32 23 17 21 26 33 35 31 30 31 29 33 39 40 46 49 49 50 50 50 51 52 53 52 49 47 48 52 54 57 59 61 61 61 61 62 64 64 64 58 47 43 44 48 51 51 48 46 51 59 59 64 68
20 22 20 21 22 22 32 44 51 53 53 60 62 56 55 55 61 66 58 56 60 60 62 64 64 66 65 60 54 53 53 52 53 54 54 54 55 53 51 50 47 47 45 40 36 28 19 19 24 30 35 33 30 31 30 30 36 39 42 46 48 50 52 54 55 56 58 58 57 53 52 54 56 58 59 59 61 61 62 62 62 62 64 61 51 46 45 46 50 51 50 48 51 56 59 62 63
24 22 17 18 20 20 27 37 47 52 52 57 60 56 54 55 58 60 55 55 59 60 60 60 61 63 64 64 58 53 52 52 51 52 54 55 56 55 52 51 48 48 47 43 39 33 24 18 21 28 34 36 34 34 33 30 32 37 39 42 45 47 49 52 53 56 58 59 61 60 56 54 54 55 56 58 59 61 62 60 60 59 63 64 56 50 48 47 50 52 53 51 50 55 61 64 63
20 21 19 16 17 18 21 28 40 49 52 55 57 56 53 52 56 59 55 53 58 61 61 58 59 60 60 63 63 57 50 49 48 47 51 54 56 56 54 52 50 49 49 46 42 38 32 22 19 25 31 36 38 37 37 36 32 33 37 39 41 44 46 48 50 53 56 59 62 62 60 56 53 52 55 57 58 60 60 58 58 58 60 64 60 54 50 49 51 53 54 51 52 56 61 64 64
14 18 20 15 17 20 20 24 34 44 49 52 54 54 53 50 54 60 57 55 59 62 63 60 58 58 58 59 62 61 53 48 48 47 48 52 56 57 55 54 52 51 50 49 45 42 38 30 22 22 27 33 38 39 39 40 37 33 34 36 38 41 45 46 46 48 50 54 58 60 61 60 56 53 54 57 58 61 64 61 59 57 57 61 63 59 52 48 48 52 55 53 53 54 55 59 61
15 16 19 16 17 21 21 21 30 41 44 47 50 50 51 50 51 58 59 57 58 61 69 69 61 58 58 57 58 60 57 51 50 50 49 51 54 58 57 55 54 52 51 50 47 44 40 37 28 21 24 29 34 38 39 41 41 36 32 34 35 37 42 45 45 46 45 46 51 55 57 58 56 53 52 55 57 60 66 65 60 57 56 57 60 59 53 47 44 49 55 57 55 51 51 55 56
22 19 20 18 18 20 20 19 27 39 42 43 46 47 48 49 49 53 59 59 54 58 70 69 58 54 56 57 56 56 58 58 57 54 52 52 54 58 59 57 55 53 51 50 48 46 41 39 35 26 22 25 29 34 36 38 39 36 32 32 33 35 38 42 45 46 43 43 47 48 49 52 51 50 49 50 53 58 65 66 62 58 57 56 55 54 51 45 43 48 54 56 54 51 53 55 55
27 23 20 20 21 21 20 20 26 34 38 40 43 44 45 47 48 49 55 59 55 56 62 57 51 52 53 54 55 55 57 61 63 58 52 52 53 54 57 58 57 54 51 49 48 47 43 40 39 34 26 22 25 30 32 34 36 35 33 33 33 33 36 40 45 48 46 44 43 42 44 45 46 47 47 45 47 53 62 66 62 59 57 55 52 50 48 43 42 47 50 51 48 48 55 58 56
27 23 19 19 18 19 20 22 29 33 33 36 39 42 42 44 48 47 49 55 56 53 52 49 46 48 50 51 53 55 56 57 60 59 53 51 51 50 52 55 57 57 53 50 48 47 46 43 41 40 34 24 22 26 29 32 34 35 35 36 35 34 36 40 45 48 48 46 43 41 42 41 42 44 45 44 42 46 56 62 61 59 55 54 53 51 46 41 41 43 45 46 46 47 52 56 56
25 20 18 19 17 18 20 21 29 31 30 32 35 38 39 40 44 45 45 52 56 51 45 44 43 44 46 48 49 52 54 54 55 58 54 50 50 49 47 48 54 58 56 53 50 47 46 45 42 41 40 33 24 22 26 30 33 35 37 38 37 35 35 38 43 48 48 47 45 44 43 40 41 45 44 43 40 39 46 53 57 57 55 54 55 54 48 41 41 44 45 45 48 51 53 55 55
22 20 17 18 20 22 21 22 28 29 28 30 32 34 36 37 40 41 41 48 55 52 45 41 41 43 44 44 47 49 52 54 54 56 52 45 44 47 45 43 47 51 54 54 51 49 46 45 44 42 42 40 32 24 23 28 32 34 36 38 37 35 34 35 39 44 46 46 47 47 47 43 41 43 42 43 41 37 40 46 50 53 53 54 55 55 52 46 45 46 46 45 47 52 55 58 55
19 20 19 18 20 25 27 27 29 27 25 26 28 30 33 34 37 38 39 44 50 52 47 40 37 39 42 42 44 46 49 52 54 55 53 46 40 42 44 42 41 41 45 51 52 51 49 46 45 45 44 43 40 32 25 24 28 32 34 35 35 32 31 32 34 40 44 45 47 48 49 47 44 41 40 41 40 36 38 42 45 48 51 54 55 55 54 50 47 47 47 46 46 49 53 58 59
18 18 20 19 18 25 32 31 28 25 23 23 24 25 26 29 32 34 37 40 46 50 45 39 38 37 38 40 41 44 47 49 52 54 56 52 43 38 40 41 39 36 38 47 52 52 51 48 46 47 47 45 44 40 32 25 24 28 31 32 33 32 30 30 32 38 42 44 46 47 48 49 46 43 41 39 38 36 36 39 42 44 47 53 54 54 54 52 49 47 46 45 42 44 50 56 61
17 16 19 20 18 21 30 32 27 23 22 22 25 27 25 25 27 30 35 36 41 49 46 39 39 37 36 38 40 42 45 47 50 52 54 53 46 38 37 39 40 39 38 42 46 48 48 48 48 48 49 48 47 45 39 31 25 25 28 30 31 32 31 31 34 38 41 43 45 44 45 47 46 44 41 39 37 35 34 37 41 42 44 49 52 51 53 53 50 47 44 42 40 41 47 55 60
18 17 21 22 19 17 20 25 26 25 24 24 26 30 28 26 26 28 35 35 35 46 49 42 38 35 35 38 39 40 43 45 48 50 52 52 49 44 39 37 40 43 41 37 39 43 46 48 49 49 49 50 49 48 45 39 31 26 26 28 29 31 31 33 36 38 40 42 44 44 43 43 44 43 41 39 37 34 34 36 39 41 42 45 47 48 50 52 51 48 44 42 40 39 44 51 55
20 21 26 28 24 18 15 17 22 26 27 25 25 28 27 25 25 27 33 34 33 41 48 45 39 35 34 36 37 38 40 42 44 47 50 51 51 50 45 40 39 41 42 40 39 41 43 44 45 45 47 49 50 50 49 46 40 33 29 27 28 30 32 33 36 38 40 41 43 43 42 41 41 42 41 39 38 36 35 36 38 39 39 41 44 44 46 49 50 49 46 43 41 40 42 45 49
23 22 25 28 26 21 17 15 18 23 26 27 25 26 25 23 23 24 27 30 33 37 41 45 44 38 34 34 36 36 38 39 40 42 46 49 52 54 53 47 40 39 41 42 41 39 38 39 40 41 43 46 48 50 50 49 46 40 34 30 28 28 31 33 35 38 39 42 43 43 42 41 39 40 41 40 39 38 37 38 39 38 37 38 39 40 43 45 48 47 46 45 41 40 43 44 44
26 22 22 25 24 23 22 20 20 22 24 25 24 25 25 23 23 23 23 27 32 33 33 40 47 43 35 32 34 36 36 37 37 37 41 46 50 52 54 52 45 40 38 38 40 39 36 35 36 38 39 40 42 45 48 49 48 45 39 35 31 30 30 31 33 36 39 42 44 44 43 41 38 38 40 40 40 39 40 41 40 38 37 38 36 40 43 44 45 45 44 45 43 40 42 42 41
28 24 23 24 22 27 30 25 24 24 22 22 23 24 24 22 23 24 23 25 30 32 30 33 42 45 37 29 32 36 35 35 35 35 36 40 46 49 50 51 47 40 36 34 36 37 36 34 34 36 36 34 34 38 43 46 46 45 42 39 36 34 32 31 31 34 37 41 44 44 43 41 38 36 38 41 41 40 41 43 42 40 39 39 37 38 41 42 44 44 42 44 44 42 42 39 40
28 24 24 23 21 30 37 29 26 25 22 23 22 21 22 20 20 23 24 25 29 33 32 30 35 43 41 32 30 34 34 34 34 34 35 36 40 45 47 48 47 42 36 33 34 36 35 34 33 34 34 34 32 32 36 41 42 43 43 42 41 38 36 33 32 32 34 38 42 44 43 42 40 36 36 40 42 43 44 44 44 42 40 38 36 34 34 36 41 43 41 41 43 42 41 39 41
27 24 24 23 20 27 34 28 25 24 22 24 23 22 22 21 20 22 23 24 28 32 32 32 32 37 43 41 35 34 33 33 34 34 34 33 36 41 44 46 47 45 41 35 32 34 34 33 32 32 33 33 33 31 31 33 36 38 40 42 43 42 40 39 37 34 33 34 38 41 42 42 40 36 35 39 43 45 46 46 44 42 40 37 35 33 32 33 37 40 40 40 42 41 40 41 43
27 25 24 24 21 23 26 25 24 23 21 22 23 24 22 21 23 25 24 21 24 28 29 30 30 32 39 43 42 39 34 32 33 33 33 32 33 36 39 43 45 46 46 41 34 31 33 33 32 32 32 33 33 32 30 30 32 34 36 39 41 42 41 41 40 38 35 33 35 37 38 40 40 36 34 36 42 46 46 44 43 42 41 37 33 32 33 33 32 35 39 39 40 41 41 42 43
26 26 25 24 23 23 24 24 24 24 26 25 23 25 24 22 23 25 24 22 21 23 25 25 23 25 31 37 42 41 35 32 32 32 32 31 31 32 34 39 42 44 46 45 39 32 30 31 32 32 32 33 33 33 32 31 30 31 32 35 37 38 38 39 38 38 38 35 33 34 35 37 38 35 33 34 38 43 44 41 41 42 40 38 35 32 30 30 28 30 35 37 38 40 38 35 38
27 26 26 25 25 25 25 25 24 25 27 26 22 22 23 22 22 21 20 19 18 18 21 21 18 18 23 30 35 36 34 32 31 30 31 29 28 30 31 34 39 41 43 46 44 39 33 30 31 33 33 32 31 33 34 33 31 30 30 31 34 34 35 36 36 36 36 35 32 31 32 34 35 32 32 33 35 39 40 39 39 41 39 37 37 34 30 27 26 26 30 33 35 36 34 32 33
31 28 28 26 25 26 27 28 28 27 26 24 21 19 19 20 20 20 19 17 16 16 16 18 17 16 19 24 28 29 29 30 30 28 29 26 24 26 30 32 35 39 41 44 47 46 40 34 31 32 33 33 32 33 35 35 34 32 30 29 31 33 33 35 35 35 34 31 28 28 28 29 32 31 30 31 32 35 38 37 37 38 37 34 33 33 31 27 25 24 27 34 37 32 31 33 31
34 33 31 28 26 26 27 29 30 29 27 24 22 19 18 20 19 17 19 18 17 18 17 16 16 16 17 20 24 26 26 28 28 27 27 25 21 23 29 32 34 37 39 42 45 48 47 42 36 33 33 34 34 34 33 33 34 34 32 30 30 31 32 34 35 34 33 30 26 26 26 26 29 30 30 30 30 32 35 36 36 36 35 32 31 31 31 28 25 23 24 31 35 30 28 31 31
32 34 33 31 28 27 26 29 30 28 26 25 25 22 19 21 20 17 18 20 19 19 18 18 17 17 16 18 22 25 25 26 26 27 27 23 20 22 27 32 34 35 38 40 43 45 48 49 45 39 35 33 33 32 31 30 31 33 34 32 30 29 30 33 34 34 33 31 27 24 23 24 25 27 28 29 29 30 33 35 35 34 31 28 27 25 23 21 19 19 19 23 26 25 25 28 30
31 31 31 30 29 27 27 28 28 27 26 25 25 24 21 20 21 19 18 18 18 17 17 18 18 18 17 17 21 22 21 23 23 26 26 22 20 23 26 30 33 34 36 38 40 44 46 48 49 46 40 35 33 32 31 28 27 29 31 32 31 30 29 30 32 33 32 31 27 23 20 20 22 24 26 27 28 29 31 33 34 30 25 22 21 19 15 12 12 13 16 19 20 20 21 25 28
Wind_Speed
4 4 4 3 2 2 2 3 2 3 4 4 2 1 1 1 1 3 3 5 8 9 10 12 14 14 13 12 12 12 13 14 15 12 13 22 26 25 26 27 29 28 26 26 26 27 27 26 25 23 23 22 21 20 18 17 17 16 16 15 15 14 14 13 13 12 11 10 10 9 9 9 9 9 8 6 4 3 4 6 8 8 7 8 8 8 8 8 8 8 9 9 9 9 10 10 10
5 4 4 3 2 2 2 3 1 2 3 3 2 2 1 1 2 4 3 6 7 10 12 15 15 13 14 12 10 9 11 13 13 11 17 26 26 26 26 26 27 28 28 28 28 28 28 26 25 23 21 20 19 18 17 17 17 16 16 15 15 14 14 13 13 12 12 12 11 11 11 11 10 9 7 5 4 4 6 7 8 8 8 8 9 8 8 9 8 8 9 10 9 9 10 10 10
5 3 3 3 2 2 2 3 1 2 3 1 4 2 2 3 3 5 5 6 8 11 13 15 15 15 14 11 10 11 12 12 10 12 22 27 26 27 26 26 26 25 26 26 27 26 26 24 23 21 19 18 17 17 17 17 17 16 15 15 15 15 15 15 14 14 14 14 14 13 12 11 9 8 6 5 5 6 7 8 8 9 8 8 9 9 9 9 9 9 9 9 9 10 10 10 10
3 2 2 2 2 2 2 2 1 3 2 1 4 3 4 4 5 6 7 7 10 12 12 14 14 16 14 10 12 12 12 11 9 15 25 26 25 28 27 26 26 25 25 24 24 24 23 22 20 19 18 17 16 17 17 17 16 16 16 16 16 16 16 16 15 15 15 14 14 13 11 9 8 7 6 6 7 8 8 9 9 9 8 9 10 10 9 9 10 10 10 10 10 10 11 11 11
2 1 1 1 2 2 2 1 1 3 2 1 4 4 4 6 6 7 7 8 11 12 12 13 12 14 14 13 14 12 11 9 12 19 23 25 25 27 28 26 26 26 24 23 23 23 22 21 19 18 17 16 16 16 17 17 17 16 16 16 16 16 16 16 16 15 14 13 12 11 10 9 8 7 7 7 8 8 9 9 10 9 9 9 10 10 10 9 10 10 10 10 10 10 11 11 11
2 1 2 2 3 2 1 1 1 2 2 1 3 3 4 6 7 7 8 9 12 12 11 11 10 12 13 15 14 13 13 10 15 22 22 24 25 26 28 27 27 26 24 23 23 23 22 20 18 17 16 16 16 16 17 17 17 16 16 16 16 16 16 15 15 14 13 11 11 10 10 9 9 9 9 8 8 9 9 10 10 9 9 9 9 10 10 10 10 11 10 10 10 10 10 10 11
1 2 2 2 3 2 1 2 1 1 2 1 2 2 5 6 6 7 7 10 12 13 12 11 10 10 12 14 12 12 13 12 17 22 22 24 25 25 27 28 27 25 24 23 23 23 21 19 17 16 16 15 15 16 17 17 17 16 16 16 15 16 15 14 14 13 12 11 11 10 10 10 10 10 9 8 8 9 10 10 10 10 9 9 9 9 9 9 10 10 10 10 10 10 10 10 11
3 2 1 1 2 2 2 2 1 1 2 1 4 5 6 6 6 7 8 9 11 13 13 12 11 8 11 13 12 12 13 13 17 22 22 23 25 25 26 27 27 25 24 23 23 22 20 18 16 16 15 15 15 16 17 18 17 17 16 16 15 15 15 14 13 13 12 11 10 10 10 10 10 10 9 9 9 10 9 9 9 9 9 9 9 9 9 9 9 9 9 10 10 11 10 10 11
3 2 1 3 4 3 3 2 1 1 1 2 4 6 7 7 7 8 9 9 9 12 12 13 11 5 8 12 12 13 12 13 18 22 23 23 24 24 25 26 25 24 23 22 23 21 19 17 15 15 15 15 15 16 17 18 18 17 16 15 14 14 14 14 13 12 12 10 10 10 10 10 10 10 9 9 9 9 9 9 9 9 9 9 9 9 9 9 9 9 9 9 10 12 11 10 11
3 2 2 4 4 4 3 1 1 1 1 2 4 6 8 9 9 10 10 10 9 11 12 13 11 7 9 12 12 13 13 15 20 22 23 24 24 24 24 25 24 23 23 22 22 20 18 16 14 14 14 14 14 15 17 19 18 16 14 15 14 13 13 13 12 12 11 10 10 11 11 10 10 10 10 10 9 9 9 9 8 8 8 9 9 9 10 9 9 9 9 9 10 12 10 10 11
3 1 2 3 4 4 3 2 3 2 1 2 4 7 9 9 9 10 10 9 10 11 12 12 11 9 11 12 12 14 14 16 21 23 23 24 24 24 23 23 23 23 22 21 20 19 16 15 13 13 13 13 14 15 17 18 18 15 13 13 13 12 12 12 12 11 11 11 11 12 11 10 10 10 10 10 10 9 9 9 9 9 9 9 9 9 9 9 9 9 9 9 9 11 10 10 12
3 2 1 3 4 4 3 3 2 1 0 1 4 8 10 10 9 10 10 9 10 11 11 11 11 10 10 12 14 14 14 17 22 23 23 24 23 23 23 22 23 23 22 21 20 18 15 14 12 12 12 12 14 16 18 18 17 15 13 12 12 12 11 11 12 12 12 13 12 12 12 11 10 10 10 10 10 9 9 9 10 10 10 10 10 10 10 10 10 9 9 9 9 10 10 11 11
3 2 2 4 5 3 4 2 1 1 2 1 4 9 10 10 9 9 10 8 9 10 11 11 11 10 10 13 15 14 14 19 22 23 24 24 23 23 23 22 22 22 22 20 19 17 14 13 11 11 11 12 14 16 18 18 16 15 13 12 12 12 11 11 12 13 13 13 13 12 12 11 11 10 10 10 9 9 9 10 11 11 11 11 11 11 11 11 11 10 10 10 10 11 11 11 11
4 4 4 5 5 3 4 2 0 2 3 1 4 8 10 10 9 9 9 9 9 10 12 12 12 10 10 14 15 13 15 22 23 23 25 24 24 24 24 23 23 22 21 20 17 16 14 12 11 11 12 14 16 18 19 18 16 15 13 12 12 11 12 12 13 13 13 13 12 12 12 11 11 10 10 11 10 10 10 10 11 11 11 11 11 11 11 11 11 11 11 11 11 11 11 11 10
6 5 5 5 4 3 3 2 1 3 3 2 4 7 8 9 10 9 9 9 9 10 12 13 13 9 9 12 12 11 15 22 24 24 25 25 25 24 24 23 23 23 21 20 17 15 13 11 11 12 14 16 17 19 19 18 16 15 13 12 12 12 12 13 13 13 13 12 12 12 12 11 11 11 12 12 12 12 11 11 11 11 12 12 11 11 11 11 12 12 12 12 12 12 11 11 10
7 6 5 5 4 3 1 1 0 3 3 2 4 6 6 8 10 10 10 10 8 9 11 13 13 9 10 13 10 9 13 21 24 25 25 25 25 25 24 23 22 22 21 19 17 14 12 11 11 13 15 17 18 19 19 18 16 14 13 12 12 12 12 13 13 13 12 12 12 12 12 11 12 13 13 13 14 14 14 13 12 12 12 12 12 12 12 12 12 12 12 12 11 11 11 11 10
8 6 5 6 4 2 1 1 1 3 3 3 5 5 6 8 10 10 10 9 8 10 11 12 13 9 11 14 13 11 13 20 25 25 26 25 25 25 25 24 23 22 20 18 16 13 12 11 12 14 16 17 18 19 18 17 15 14 13 13 13 13 13 13 13 13 12 12 12 12 11 12 14 14 14 14 14 15 14 14 13 12 12 11 11 10 11 11 11 11 12 11 11 11 10 10 9
10 7 6 6 4 3 2 2 3 5 3 3 6 7 6 7 9 9 9 8 8 12 12 10 11 11 12 13 14 14 14 20 25 26 27 27 26 26 25 24 23 21 19 18 16 13 12 12 14 15 16 17 17 17 17 16 15 14 14 14 13 13 13 13 14 13 12 12 12 12 11 13 15 14 14 13 14 14 14 13 12 11 11 10 9 9 9 10 10 10 11 10 10 10 10 10 9
10 8 7 6 4 5 5 5 5 6 4 5 7 8 7 7 8 9 8 7 8 11 12 10 10 11 12 12 13 15 16 20 24 25 27 27 26 25 25 25 24 22 19 18 16 14 13 14 15 16 16 17 17 15 15 15 14 14 14 14 14 14 13 13 14 13 12 12 12 12 12 14 15 14 14 13 13 13 12 12 11 10 9 9 8 8 8 8 9 10 10 10 9 10 10 10 9
11 10 8 6 6 7 7 7 6 6 8 7 7 8 9 8 8 9 8 7 6 8 9 9 11 11 12 12 12 14 17 21 24 24 25 26 25 25 25 24 23 21 19 17 15 14 13 15 16 17 17 17 16 15 14 14 14 14 14 14 14 14 13 13 13 12 12 12 12 12 12 14 15 14 13 12 11 11 11 11 10 9 8 8 8 7 7 7 8 9 10 9 9 10 9 9 8
12 13 8 6 8 7 7 8 7 8 8 8 8 9 8 8 8 9 9 7 6 7 7 7 10 12 11 11 11 13 17 21 23 24 24 25 24 24 24 23 22 20 18 16 15 14 14 16 17 18 17 17 16 15 14 14 14 14 13 14 14 14 14 13 13 12 12 12 12 12 12 14 14 13 12 11 11 10 10 10 9 8 8 7 7 7 7 7 8 8 8 8 9 10 9 8 8
15 15 10 7 8 7 9 10 8 8 8 8 9 8 8 8 7 8 10 8 5 7 8 7 10 12 11 11 11 13 16 20 22 22 24 25 24 23 23 23 22 20 18 16 15 14 15 17 18 18 17 17 17 15 14 13 13 13 13 14 14 14 14 14 13 12 12 12 12 12 12 13 12 12 11 10 10 9 8 8 8 8 7 7 6 7 7 7 7 7 8 7 8 9 8 8 8
18 15 11 9 10 11 11 11 9 9 9 8 8 8 9 8 7 8 11 9 6 8 11 9 9 11 11 11 10 12 15 18 20 21 23 24 23 22 23 23 22 20 18 16 15 15 16 18 18 18 17 17 16 15 14 14 14 13 14 15 15 15 14 14 13 12 12 12 13 13 13 12 11 10 9 8 8 7 7 7 7 7 7 7 6 6 7 7 7 7 7 7 7 8 8 7 7
21 17 13 11 12 15 13 12 11 10 10 9 9 9 9 8 7 8 11 10 8 9 12 10 9 11 12 11 11 11 13 16 18 20 22 23 23 21 22 23 22 20 18 17 16 16 17 18 18 17 17 17 16 15 14 14 14 14 14 15 16 15 15 14 13 12 12 12 13 13 13 12 10 9 7 7 7 7 7 7 7 7 7 7 7 7 7 7 7 7 7 7 7 7 8 7 7
24 21 16 13 14 16 16 15 13 12 10 8 10 9 7 7 8 9 9 9 9 9 12 12 9 11 12 11 11 12 13 16 17 20 22 23 23 22 22 22 21 20 18 17 16 17 18 18 18 18 17 17 16 15 14 15 15 15 15 16 16 16 15 14 13 12 12 12 13 13 12 11 9 7 6 6 6 7 7 7 7 7 7 7 7 7 7 7 7 7 6 6 6 7 8 7 7
23 24 19 17 15 17 18 16 14 13 10 9 9 7 6 8 10 10 10 11 11 11 12 12 10 10 11 11 11 12 14 16 17 20 22 23 23 23 23 22 22 20 19 17 16 17 19 18 18 18 18 17 16 15 15 16 16 16 16 15 16 16 15 13 12 12 13 13 13 12 11 9 8 6 5 5 6 6 6 7 7 7 7 7 7 7 8 8 8 7 6 6 6 7 8 7 7
19 24 22 20 17 19 20 17 15 13 11 11 9 6 6 10 11 9 11 14 12 12 13 12 10 9 10 11 11 12 14 15 17 20 23 24 25 24 24 24 23 21 20 18 16 17 19 19 18 18 18 18 17 16 16 17 17 17 16 16 16 15 14 13 13 13 13 13 13 12 10 8 6 5 5 5 5 5 6 6 6 7 7 7 7 8 8 9 8 8 7 6 6 6 8 8 7
22 24 22 21 20 21 22 20 18 14 12 11 10 8 8 12 14 11 11 15 13 12 12 10 10 10 11 12 12 13 15 17 18 20 22 24 25 25 25 24 24 22 20 18 17 17 19 19 18 18 19 18 17 17 17 18 18 17 17 16 16 15 15 14 13 13 13 12 12 11 9 7 5 5 5 5 6 6 6 6 6 7 7 7 7 8 8 9 9 8 7 6 6 7 8 8 7
25 25 22 19 18 21 22 22 19 16 14 11 11 10 11 15 15 13 14 15 14 13 12 11 10 10 11 12 13 14 17 20 20 20 20 21 22 23 24 24 23 22 20 19 17 17 19 20 19 19 19 18 17 18 19 19 19 18 17 17 16 15 15 14 13 12 11 11 10 9 8 6 5 5 6 6 6 6 6 6 6 6 6 7 7 7 8 9 9 9 8 7 6 7 8 8 7
25 24 23 19 17 20 21 22 20 18 16 13 13 12 12 14 13 13 15 15 15 14 12 12 11 11 11 12 14 15 18 20 21 20 20 20 21 21 22 23 23 22 21 20 19 18 20 20 20 19 19 19 18 19 20 20 19 18 18 18 17 16 16 15 14 13 11 10 9 9 8 7 6 6 6 7 7 7 6 6 6 6 6 6 6 7 8 9 9 9 9 8 7 7 7 6 7
21 20 21 19 18 18 18 20 21 20 18 16 15 12 11 12 13 15 15 14 14 14 14 13 12 11 11 11 13 15 17 18 18 19 20 20 21 21 23 24 23 23 22 20 19 18 19 20 20 20 20 20 19 19 20 20 19 18 18 18 18 17 16 15 14 13 12 10 9 9 9 8 7 7 7 7 7 7 6 6 6 6 6 6 6 7 8 8 9 9 8 8 7 6 6 5 5
16 17 19 20 20 16 14 18 22 21 18 17 16 14 12 11 15 17 14 12 12 12 14 14 13 12 11 11 12 14 16 16 18 19 20 20 21 22 23 24 24 23 22 20 19 19 18 19 20 20 20 20 19 19 20 20 19 18 18 18 18 17 16 15 14 14 12 11 10 9 8 8 7 7 7 7 7 7 6 6 6 5 5 6 7 7 7 8 8 8 8 8 7 6 5 4 4
16 19 19 19 22 20 16 18 22 22 17 17 19 16 12 10 14 17 14 12 11 11 13 13 13 12 11 11 11 13 15 18 20 21 22 22 22 22 23 24 24 23 23 22 20 19 18 19 20 20 20 21 20 20 19 20 19 19 18 18 17 16 16 15 14 13 12 11 11 9 8 7 7 7 7 7 7 7 6 6 5 5 5 5 6 6 7 7 7 8 8 7 6 6 5 4 4
18 20 20 18 20 22 20 17 20 24 19 17 21 19 14 8 11 17 16 13 13 12 12 12 13 13 12 12 12 13 15 18 20 22 23 24 23 23 24 25 25 24 24 23 22 20 19 19 20 22 21 21 22 21 20 20 19 19 18 18 17 16 15 15 14 13 12 11 10 10 8 7 7 7 7 7 7 6 6 5 5 5 4 5 6 6 6 6 6 7 8 7 6 6 5 4 4
19 20 21 20 18 21 23 18 17 24 24 19 20 23 20 13 10 14 15 15 15 14 13 12 12 13 12 13 14 13 14 16 18 21 23 24 24 24 25 26 27 26 26 25 24 23 22 21 21 22 22 23 23 22 21 20 20 19 19 18 17 16 15 14 13 13 12 11 10 10 9 8 7 7 6 7 6 6 5 5 5 4 4 5 5 5 6 6 6 6 7 6 6 6 6 5 5
16 19 20 20 19 20 24 20 14 18 24 24 23 22 22 19 15 15 15 15 15 14 15 15 14 14 14 14 15 15 14 14 16 19 22 23 25 25 26 27 28 28 27 27 26 25 24 23 22 22 23 23 23 23 23 22 21 20 20 18 17 15 14 13 13 12 12 11 10 10 9 8 7 7 6 6 6 5 4 5 4 4 4 4 5 5 5 5 5 6 6 6 6 5 5 5 6
12 15 17 19 19 18 21 22 17 15 19 22 24 23 22 21 19 17 17 17 16 16 18 19 17 15 15 15 15 16 15 15 15 18 22 24 26 27 27 28 29 29 29 29 28 27 26 24 23 22 23 23 23 23 23 22 22 21 20 18 17 15 14 13 12 12 12 11 10 10 10 9 7 7 6 5 5 4 4 4 4 4 4 4 4 4 5 5 5 5 6 6 6 5 5 5 5
12 13 15 17 18 17 16 19 18 17 19 20 20 23 24 23 21 19 18 20 19 19 20 19 17 15 15 16 16 16 16 17 18 18 21 25 27 28 29 29 30 30 30 30 30 29 27 26 25 23 23 24 24 23 23 22 21 20 20 18 17 16 14 13 12 12 11 11 10 9 9 9 8 7 6 5 5 4 4 4 4 4 4 4 4 4 5 5 5 5 5 6 6 5 5 5 4
16 15 15 17 18 18 16 17 17 16 20 22 19 20 23 22 23 21 20 22 23 21 21 18 16 15 16 17 17 17 17 18 19 19 20 24 27 29 30 30 31 31 31 30 30 30 29 28 27 26 25 24 24 24 23 22 21 20 20 19 18 17 16 15 14 13 12 11 10 9 9 8 8 6 6 5 4 4 4 4 4 4 4 4 5 5 4 5 5 5 6 6 6 5 5 4 3
21 19 18 18 16 16 17 18 18 18 19 21 20 20 22 21 23 24 22 23 24 23 22 19 19 18 18 17 16 16 17 17 18 20 20 23 27 30 30 31 32 32 32 31 31 31 31 30 29 28 27 25 25 25 24 23 23 22 21 21 20 20 19 18 16 15 13 12 10 9 8 8 8 7 6 5 4 4 4 4 4 3 4 4 5 5 4 5 5 6 6 6 5 5 5 4 3
24 23 22 19 15 16 16 13 12 17 20 21 20 20 23 23 23 24 24 24 25 25 24 23 22 22 20 19 19 18 17 17 18 19 20 22 26 29 31 31 32 33 33 33 32 32 32 31 30 29 28 27 25 25 25 25 24 24 24 23 23 22 21 20 18 16 14 12 11 10 9 8 8 7 7 6 4 4 4 4 4 3 3 4 4 4 4 5 5 6 6 5 5 4 4 4 3
23 24 26 23 17 15 16 13 9 14 20 23 23 20 20 25 26 26 25 24 26 27 27 27 25 25 24 23 22 20 18 17 17 19 20 21 23 26 29 31 32 32 32 33 33 33 32 31 31 30 29 28 27 26 25 26 26 25 25 24 23 23 22 20 18 16 14 13 12 11 10 9 8 8 7 7 6 5 5 4 4 4 4 4 4 4 5 5 5 5 5 5 4 4 4 4 3
22 21 23 26 22 16 15 15 15 17 17 19 24 23 20 23 28 30 28 26 27 29 31 31 28 27 27 25 23 21 20 18 17 19 22 22 23 24 27 30 31 31 31 32 33 33 33 32 31 31 31 30 29 28 27 27 27 27 26 25 24 22 21 19 17 16 16 15 14 13 12 11 10 9 8 8 7 6 6 5 4 4 4 4 3 3 4 4 4 4 4 4 4 4 4 4 4
22 16 16 22 26 23 18 15 17 19 17 16 20 23 23 24 25 27 29 30 28 29 33 33 30 29 28 25 24 23 21 20 18 19 22 24 23 23 24 27 30 31 32 32 33 33 33 32 32 32 31 31 31 30 29 29 28 27 26 26 25 24 22 20 19 18 18 17 16 15 14 13 12 11 10 9 8 7 7 6 5 5 4 4 3 3 3 3 3 3 3 4 5 5 4 4 4
22 14 11 16 22 26 24 20 19 19 19 21 21 20 19 23 24 22 23 31 32 30 33 34 33 31 29 26 24 23 21 20 20 19 21 24 24 22 21 24 28 31 32 31 32 33 33 33 32 32 32 32 32 32 30 30 29 28 27 27 26 25 23 22 22 21 21 19 18 16 15 14 13 12 11 10 9 8 7 7 6 5 5 4 3 3 3 2 2 2 3 4 5 5 5 4 4
22 15 10 12 16 21 24 23 22 19 19 24 25 23 18 18 25 26 23 28 32 30 30 33 35 33 30 27 25 24 22 21 21 21 21 22 23 22 21 22 25 29 32 32 32 33 33 33 32 32 33 33 33 33 32 31 30 29 29 28 27 26 25 25 24 24 23 22 20 19 17 16 14 13 13 11 10 9 9 8 7 6 5 5 4 3 2 2 1 1 2 2 3 4 5 4 4
20 17 15 13 14 18 20 22 23 19 19 24 26 26 21 16 22 29 28 28 29 28 28 29 32 34 32 30 27 24 23 22 21 21 22 22 23 24 24 23 23 26 31 33 33 33 33 33 32 32 32 33 34 33 33 32 32 31 30 29 28 27 27 26 26 26 25 23 22 21 19 18 16 15 14 13 11 10 10 9 8 7 6 5 5 5 4 3 2 1 1 2 2 3 4 4 4
19 18 17 16 15 16 17 20 22 15 14 21 25 26 25 22 23 25 25 27 26 27 29 28 29 33 35 32 29 27 25 23 21 21 22 24 24 25 26 25 24 25 29 31 32 33 32 32 32 32 32 33 33 33 34 33 33 32 31 30 29 28 28 28 27 26 26 25 23 22 21 19 18 16 15 14 13 12 11 10 9 8 7 6 6 6 6 5 4 3 3 2 2 3 3 3 4
23 21 20 18 14 13 13 14 16 15 16 19 21 23 27 29 28 24 22 23 23 25 29 29 27 29 35 34 30 29 28 25 23 21 22 25 25 25 26 26 25 24 26 28 30 31 32 32 32 32 32 31 31 32 33 34 33 33 31 30 29 29 28 28 28 27 27 26 25 24 23 21 19 17 16 15 14 13 12 11 10 9 8 7 7 8 8 7 6 5 5 4 4 4 3 3 3
27 26 25 21 13 9 10 10 11 13 17 20 21 21 23 28 29 28 27 24 19 20 25 28 27 26 31 33 30 29 28 27 26 23 22 24 25 25 26 26 25 24 24 25 28 30 31 32 32 32 32 31 31 31 32 33 33 32 31 30 30 29 29 28 28 28 28 27 27 26 24 23 21 19 18 17 17 16 14 13 12 11 10 9 8 9 9 9 9 7 7 6 6 5 4 4 4
28 27 25 24 20 13 9 9 11 12 13 18 22 18 15 18 21 22 26 28 24 21 20 23 25 24 26 29 29 28 27 27 27 26 24 22 24 25 26 28 27 26 25 25 26 29 30 31 31 32 32 31 31 31 31 32 32 32 31 31 31 30 29 29 28 29 29 29 28 27 26 25 23 22 20 20 19 18 17 16 14 13 12 11 10 10 10 11 11 10 9 8 7 7 6 6 5
24 27 27 28 27 20 14 11 13 14 11 13 21 19 13 11 10 10 16 23 27 28 26 25 26 26 26 27 28 29 29 28 28 27 25 23 24 26 27 28 29 28 27 26 25 27 28 29 30 30 31 31 31 31 31 31 31 31 31 31 30 30 30 29 29 29 29 29 29 28 27 26 25 24 23 22 21 21 19 17 16 15 14 13 12 12 12 12 13 12 11 10 9 8 7 7 7
20 26 30 28 25 22 19 15 15 14 11 11 18 21 18 14 14 14 16 18 22 27 30 31 32 32 30 27 28 30 31 31 30 28 25 24 25 27 28 29 30 30 29 28 26 26 27 27 28 29 30 30 31 31 31 31 31 30 30 30 30 30 30 29 29 28 29 29 29 29 28 27 27 26 25 24 24 23 21 19 18 17 16 15 14 14 14 14 14 14 13 12 11 10 9 9 8
21 24 27 25 23 23 21 15 12 13 10 10 17 20 20 17 14 15 21 25 24 24 26 27 31 35 35 32 31 32 33 32 30 28 25 24 25 27 28 29 30 31 29 29 28 27 26 27 27 28 29 29 29 30 31 32 31 30 29 30 30 30 29 29 28 28 28 29 30 29 29 28 28 28 27 26 26 24 22 20 20 19 18 17 16 16 16 16 16 16 15 14 13 13 11 11 10
27 22 21 25 24 23 23 17 11 11 10 9 15 19 20 20 15 9 14 23 26 26 26 26 27 31 35 36 35 35 35 33 31 28 25 24 25 27 29 29 30 30 30 30 30 29 28 27 26 27 28 29 29 30 31 32 32 31 30 30 30 30 30 29 29 29 29 30 30 30 29 29 28 29 28 28 27 25 23 22 21 20 19 19 18 17 17 17 17 17 16 16 15 15 14 13 13
32 26 22 27 27 23 24 22 16 12 9 8 12 14 16 20 21 14 11 15 19 21 23 26 27 29 31 34 35 37 37 35 32 29 26 24 23 26 29 30 31 31 31 32 32 31 30 28 27 27 28 29 29 29 30 31 32 32 31 31 30 30 31 31 30 30 30 30 29 29 29 29 29 30 30 29 28 27 25 23 22 22 21 20 19 18 18 18 18 17 17 17 17 17 16 15 15
34 34 29 26 27 26 25 25 25 20 11 7 7 9 11 15 18 19 14 13 15 16 19 22 24 26 27 30 34 36 38 36 33 29 26 24 22 24 29 31 31 32 32 33 33 32 31 30 29 28 28 29 29 29 29 30 31 32 32 31 31 30 31 31 32 31 30 30 29 29 30 30 31 31 30 30 29 28 26 25 24 23 22 20 20 19 19 19 19 18 18 18 19 18 18 17 17
28 34 37 32 28 27 22 20 27 27 19 13 9 6 7 7 9 15 15 14 14 15 17 19 21 22 24 27 31 35 37 37 33 30 27 24 22 24 29 32 33 33 34 35 34 33 32 32 31 30 30 29 29 29 29 29 30 30 31 31 31 31 31 31 32 32 30 30 29 30 30 31 31 31 31 31 30 29 28 26 25 24 23 21 21 20 19 19 19 18 17 18 19 20 19 19 19
Wind_Direction
142 141 133 132 132 138 168 158 190 217 251 261 197 168 199 254 152 118 128 117 122 139 133 135 138 132 131 139 143 145 150 151 152 154 158 154 151 149 145 143 142 141 140 137 137 138 136 135 133 133 134 133 134 132 131 134 136 137 137 139 141 143 146 149 153 155 157 159 159 157 155 153 150 150 150 147 140 117 94 92 90 85 80 76 73 83 96 98 102 102 99 97 96 100 99 99 98
131 144 141 136 144 147 147 138 172 231 247 253 113 117 171 110 119 132 140 121 140 148 135 136 134 128 125 130 133 137 149 152 156 158 159 154 150 151 148 145 144 142 142 142 142 142 142 139 136 135 133 129 129 127 127 130 131 132 133 136 137 139 139 139 142 143 145 146 147 147 147 147 147 148 149 147 134 108 96 92 87 86 83 78 77 86 99 101 104 102 99 98 98 99 96 96 93
126 135 145 143 156 167 163 143 190 239 234 187 113 122 112 108 135 146 148 138 149 144 135 136 133 129 120 114 124 139 154 155 161 157 155 154 151 151 150 147 146 144 143 144 144 143 140 136 133 130 127 124 124 124 125 128 128 128 129 132 133 133 131 131 133 136 137 139 141 142 143 144 146 148 147 140 121 105 96 90 88 90 86 82 81 87 98 101 103 102 99 99 102 101 98 97 93
139 155 161 159 163 166 186 162 223 255 243 127 113 110 105 121 147 148 144 136 142 143 138 135 133 134 129 124 124 134 153 154 154 154 154 154 153 151 150 149 147 146 144 143 144 142 138 134 132 127 125 124 124 124 126 127 126 125 126 129 131 131 129 130 133 135 137 139 140 141 142 142 144 142 136 127 113 103 95 90 92 92 87 84 83 86 95 100 100 99 98 101 103 104 101 98 94
158 197 161 169 179 173 220 236 243 266 299 41 78 88 116 137 149 147 137 135 142 146 140 134 136 139 142 143 132 134 149 147 146 155 157 154 155 153 150 150 148 147 145 145 146 144 141 138 134 129 127 126 126 125 127 128 126 124 126 128 130 131 132 134 135 136 137 138 139 138 138 138 135 128 121 115 107 99 94 94 94 92 87 84 84 88 95 100 99 97 99 103 104 104 101 97 94
164 173 129 169 211 207 266 316 217 282 319 16 57 82 135 149 156 149 140 140 143 149 145 136 137 142 146 146 140 140 141 140 147 156 160 154 155 154 151 151 148 148 148 148 149 148 146 142 138 132 129 127 126 127 128 129 127 126 127 129 132 134 135 134 134 134 134 134 132 131 131 129 122 117 114 109 104 98 96 96 94 92 89 88 88 91 97 101 101 99 99 102 106 105 102 99 95
197 179 141 179 234 237 293 332 343 301 299 182 127 130 148 158 160 148 147 145 147 153 154 146 134 137 149 145 138 137 134 138 148 156 161 156 156 156 152 151 150 150 151 151 151 152 149 144 140 134 130 128 128 129 132 133 131 131 132 135 136 136 133 131 133 131 130 129 126 126 126 122 117 114 111 109 104 99 96 94 92 91 91 91 91 94 98 101 103 102 101 102 105 105 102 101 96
224 217 176 286 286 286 310 318 307 238 286 233 161 158 149 151 157 151 148 146 153 156 156 156 142 133 150 150 144 141 135 140 151 157 160 157 156 156 154 153 152 152 153 153 153 154 152 146 141 136 133 132 133 134 137 138 136 135 136 138 138 136 133 132 131 128 127 126 124 124 121 117 115 112 108 106 104 99 95 92 90 91 91 92 93 95 97 99 100 98 98 102 105 104 101 102 100
227 239 279 327 330 327 312 317 310 265 269 247 177 162 148 140 139 142 145 150 159 156 157 156 146 144 160 159 154 148 141 144 154 156 159 159 157 157 157 155 154 153 154 155 155 156 153 148 143 139 137 136 136 138 142 142 140 139 139 138 136 135 133 132 129 126 125 125 124 120 118 115 111 109 107 105 102 99 94 91 90 90 90 92 95 96 97 98 95 89 86 89 94 94 93 98 101
223 246 318 335 335 322 312 37 25 351 243 219 196 168 151 142 130 131 143 157 162 157 161 158 154 168 168 161 157 155 148 148 155 157 160 160 158 159 159 156 155 154 156 156 156 156 154 149 146 142 141 140 140 142 146 145 142 140 140 137 136 136 132 130 130 129 127 125 123 117 117 115 109 108 107 105 100 95 91 88 87 89 91 92 95 96 98 97 92 88 83 79 82 86 87 90 91
227 248 331 339 321 318 340 31 36 21 250 211 195 174 157 146 130 134 147 154 158 157 161 160 160 162 158 157 156 156 149 152 157 158 161 161 159 160 160 158 155 156 158 157 157 156 155 151 149 147 144 142 142 146 147 145 142 140 138 136 137 137 133 131 131 129 127 125 122 119 118 112 109 109 104 98 94 91 88 86 86 89 92 93 94 96 97 96 91 86 85 82 81 83 82 81 82
230 249 300 312 301 308 336 348 24 49 145 133 177 170 161 153 135 136 145 148 151 156 163 161 160 155 155 157 153 151 150 156 157 158 163 162 161 160 161 159 156 159 160 159 158 157 155 153 153 150 146 143 145 148 149 146 143 142 141 140 141 138 134 132 130 127 125 125 124 121 118 112 108 104 96 91 90 91 90 90 91 91 92 93 93 93 95 95 93 88 86 85 85 86 85 82 80
213 238 253 281 283 291 308 306 31 77 113 115 171 160 154 155 146 140 143 151 150 156 169 165 160 158 159 159 153 150 151 157 157 159 164 164 163 162 161 161 160 162 162 161 159 158 157 156 157 152 147 147 149 150 150 149 147 147 147 147 145 138 134 130 127 126 125 125 124 120 114 109 103 96 91 90 93 96 96 95 95 94 94 95 92 91 92 93 93 90 87 85 85 86 88 86 83
206 235 237 265 278 284 285 261 139 105 133 138 157 149 153 158 156 149 144 151 154 163 175 169 164 165 167 164 160 155 152 158 159 160 165 165 164 163 163 163 163 163 163 163 160 159 159 159 159 154 151 151 151 151 152 153 152 154 152 150 145 138 133 129 128 127 127 124 120 115 110 104 97 93 92 91 92 95 100 102 100 98 96 94 91 89 90 93 94 92 89 87 86 85 86 87 85
206 224 238 265 278 271 265 237 143 122 136 147 146 144 153 161 158 152 146 156 169 176 176 172 171 173 181 178 173 163 157 162 161 161 167 167 165 166 166 166 165 164 163 164 162 160 161 161 160 157 153 153 152 152 155 156 157 158 155 150 144 137 133 131 130 127 125 121 116 112 108 103 96 96 97 93 91 92 100 105 103 100 96 92 88 87 88 90 92 91 90 89 87 86 86 86 85
213 216 238 259 263 250 204 128 125 128 135 138 145 146 145 157 159 157 158 166 178 179 175 176 176 175 185 190 190 175 166 167 162 161 168 168 167 168 168 169 167 164 164 165 165 162 161 162 160 159 154 150 151 154 156 158 161 161 156 150 143 136 134 133 130 126 121 118 114 113 110 103 101 102 101 98 95 93 97 101 103 100 96 92 87 87 89 88 89 89 90 89 88 86 85 86 85
217 214 229 244 238 227 139 91 91 114 134 141 133 140 139 150 163 166 166 166 168 170 173 177 177 176 182 191 194 186 176 172 165 162 167 168 169 170 170 171 168 167 165 165 167 162 162 165 161 158 154 149 152 155 157 159 163 163 157 150 143 136 135 135 131 127 122 120 118 117 110 104 107 108 106 103 99 95 95 97 99 98 94 91 90 90 91 90 90 91 92 90 88 86 83 83 83
215 213 224 236 224 208 149 103 110 108 132 162 138 138 132 143 165 170 169 168 166 171 176 175 177 180 185 192 193 188 180 177 171 166 169 170 171 173 172 171 170 170 166 165 168 164 164 166 160 157 155 153 153 155 157 161 165 164 158 150 144 138 137 136 132 130 127 125 125 120 110 108 112 110 108 106 101 99 97 95 94 93 91 89 91 92 93 92 90 91 92 92 91 87 82 81 82
218 216 228 236 217 210 190 163 138 126 147 161 142 139 140 149 163 169 175 178 175 183 192 190 187 185 189 193 190 187 181 180 178 172 172 173 172 174 173 172 172 171 169 167 165 166 169 165 161 159 157 155 153 154 158 162 163 160 155 150 145 141 140 139 136 134 132 130 127 120 112 113 113 109 108 106 104 103 100 97 93 91 90 90 91 92 94 93 92 93 91 89 90 89 86 83 83
223 217 226 243 215 205 196 178 162 147 140 143 145 139 148 164 165 166 174 186 187 197 208 205 198 192 196 191 183 187 181 181 183 177 175 175 174 175 175 174 174 172 169 166 164 168 172 165 162 159 156 154 152 154 157 157 158 156 154 153 149 145 143 142 141 138 134 132 128 122 119 119 114 109 108 107 107 106 102 99 95 92 90 89 90 92 96 97 94 92 90 86 85 87 86 84 83
229 221 215 237 212 195 200 186 167 158 141 140 150 139 150 167 164 165 169 179 192 205 212 203 200 199 202 193 180 188 183 181 185 181 177 177 177 177 177 176 175 172 168 167 168 171 171 165 161 157 153 152 152 154 155 154 156 156 156 156 152 148 147 147 146 141 135 134 130 126 127 125 118 113 111 110 109 105 103 100 97 95 93 92 91 90 91 91 89 85 86 84 81 81 80 82 82
228 227 212 212 196 189 207 193 168 159 146 142 145 142 161 165 153 156 157 165 183 203 206 189 192 197 199 193 181 187 183 180 186 184 178 178 179 178 177 177 177 173 168 169 170 171 172 166 160 156 153 153 153 153 154 156 157 156 157 157 153 151 152 152 150 144 140 137 135 134 134 130 122 117 114 113 110 106 104 99 98 99 98 98 94 90 84 80 81 80 80 78 78 78 77 78 78
227 232 224 212 193 198 208 194 179 163 147 143 146 150 163 158 146 148 151 169 181 188 195 183 183 192 192 187 179 183 181 179 186 187 181 179 180 178 177 178 178 175 169 170 172 173 172 166 160 157 156 155 154 154 156 157 157 157 158 156 154 155 157 156 153 148 145 143 141 140 140 135 127 120 117 115 111 107 103 97 97 101 103 101 94 90 85 81 79 79 77 73 74 77 76 73 71
227 228 225 218 199 204 209 198 190 180 164 156 156 153 155 154 156 162 162 181 190 179 187 185 185 185 182 181 176 179 179 179 186 189 184 180 181 179 178 178 178 176 172 172 174 174 173 168 161 159 158 157 156 157 155 156 156 158 159 157 156 159 160 158 156 152 148 146 144 144 144 140 132 125 121 117 112 106 100 97 97 100 103 100 95 92 90 86 81 80 77 71 72 75 76 73 68
231 225 221 222 206 203 209 204 197 191 186 177 167 157 162 169 168 174 173 187 196 182 185 189 191 183 176 177 173 173 177 180 187 192 187 181 182 182 181 181 179 177 173 174 177 175 174 169 163 161 161 159 157 157 154 154 156 158 159 158 158 159 160 159 157 153 149 149 148 148 147 142 136 129 123 118 113 106 100 96 97 97 96 96 96 96 95 91 86 83 75 68 69 73 76 76 71
238 230 223 224 211 204 209 208 202 197 198 194 181 168 186 188 173 177 179 188 196 185 185 189 189 184 179 177 173 173 179 182 186 191 189 183 182 183 183 181 180 178 175 177 179 177 174 170 165 162 162 161 158 157 156 155 156 158 159 158 158 159 160 158 155 153 150 151 150 149 148 143 138 131 124 118 110 104 99 95 96 96 92 93 97 98 97 94 92 88 78 70 67 72 79 82 77
237 234 225 223 214 208 209 210 206 203 208 203 194 193 209 200 180 180 188 185 186 183 187 190 183 181 182 179 176 177 180 182 186 190 190 186 183 183 183 181 181 179 177 179 180 179 176 171 167 164 164 163 159 158 156 156 156 157 157 157 158 159 158 154 152 152 151 152 151 150 149 144 140 133 123 114 105 99 96 97 98 97 92 92 98 99 96 96 96 92 84 74 69 72 82 89 85
230 234 227 226 223 216 213 212 208 207 220 215 204 207 217 208 185 180 196 183 178 183 183 182 175 175 180 179 179 181 182 184 187 191 191 188 184 182 182 182 182 179 178 180 180 180 177 172 168 166 166 163 159 156 153 153 152 151 151 151 153 154 151 149 149 151 152 152 151 151 150 147 143 135 125 114 107 101 99 106 105 98 92 89 93 97 96 96 95 93 88 80 72 72 79 88 89
229 235 232 234 236 230 221 215 211 212 224 220 208 211 217 214 190 182 196 180 175 184 179 176 171 171 177 179 181 183 186 187 186 188 190 191 189 185 182 182 183 181 179 180 181 180 180 175 170 168 168 165 159 154 152 151 149 148 148 147 149 148 146 146 149 151 152 152 152 154 154 151 145 134 127 118 110 104 103 108 106 98 90 86 90 94 97 97 97 96 92 88 78 70 73 83 86
229 236 236 237 244 241 229 219 214 215 221 214 207 214 216 212 197 194 197 181 179 183 180 181 175 174 179 180 184 187 192 192 185 182 185 189 190 188 185 184 185 184 183 182 181 181 181 179 173 170 170 168 163 157 155 154 152 151 149 148 148 147 146 146 149 150 151 153 157 160 156 148 142 133 126 120 112 106 103 102 97 94 88 87 92 94 96 97 97 96 94 93 85 73 70 77 81
227 232 236 235 239 239 228 219 215 214 220 213 207 220 225 210 202 203 198 186 186 184 184 189 183 180 180 182 188 191 195 194 185 180 184 187 188 189 188 187 188 187 187 185 184 183 182 182 177 173 173 172 168 162 159 159 157 154 152 152 151 150 150 149 149 150 149 151 155 156 150 143 139 133 127 122 114 109 107 101 92 86 86 90 92 93 94 95 95 95 94 93 89 81 77 77 81
221 222 227 227 230 229 219 216 213 210 218 214 206 220 231 214 201 204 199 189 193 191 189 192 191 188 184 186 191 194 196 194 189 185 186 188 189 190 189 189 191 190 189 188 187 186 182 182 181 177 176 176 173 167 164 163 162 159 157 156 155 154 153 151 151 149 147 146 146 146 143 142 138 135 131 123 117 113 111 105 95 87 86 86 87 90 93 95 98 97 92 87 85 87 89 86 82
216 218 221 220 221 222 222 221 214 208 211 213 208 216 228 215 199 206 211 203 203 203 198 196 196 195 192 192 193 196 197 195 192 188 187 188 189 191 190 191 193 192 192 192 191 189 184 182 183 181 179 179 178 175 171 169 167 165 164 162 160 159 157 156 154 151 150 147 144 143 141 142 140 137 133 124 119 116 113 108 102 96 89 85 85 89 91 93 96 94 90 84 82 88 96 96 88
211 214 220 221 217 220 220 217 214 210 208 213 214 217 223 210 191 206 220 218 212 210 208 204 202 200 199 200 200 199 200 200 197 191 189 188 188 190 191 192 194 194 194 195 194 193 189 185 184 186 184 182 182 182 179 176 174 172 172 169 166 164 162 161 159 155 154 150 146 144 141 142 140 139 135 126 119 113 109 107 105 102 96 88 82 83 85 90 90 89 88 84 78 83 95 105 100
208 209 216 219 217 218 216 212 214 212 211 214 217 220 225 223 200 206 219 220 216 215 216 218 216 212 208 206 207 204 203 205 203 199 194 190 189 190 191 193 195 196 196 196 196 195 194 190 188 189 188 186 185 186 185 183 181 179 178 176 172 170 167 166 163 160 158 156 153 149 147 146 142 143 139 127 120 112 106 104 105 102 96 89 82 81 85 91 91 86 84 80 72 75 90 105 108
212 214 218 218 218 220 217 214 213 207 211 219 221 224 227 225 217 214 220 223 220 217 217 225 229 224 218 213 212 209 205 203 204 205 201 195 192 191 193 195 196 198 198 198 198 197 196 194 192 191 191 192 190 189 189 187 186 184 182 182 178 174 171 170 169 166 163 162 162 160 157 154 150 147 142 130 121 115 111 107 103 99 94 89 83 79 82 88 93 90 83 75 70 74 87 98 105
217 219 225 223 224 226 218 215 216 207 213 222 223 228 230 226 223 220 221 226 225 219 216 223 226 221 217 215 215 211 207 205 205 207 205 201 196 194 195 197 197 199 199 200 200 200 198 197 196 194 194 195 194 193 192 190 189 186 184 184 183 182 178 177 177 173 170 167 168 170 166 162 159 154 145 137 129 126 128 115 102 101 97 89 83 78 79 84 89 90 81 72 73 85 93 92 97
224 223 229 229 227 227 220 216 220 217 220 226 223 228 232 228 225 222 221 225 226 222 219 221 219 218 218 214 215 216 213 212 209 208 208 205 200 197 197 199 200 201 201 201 201 201 200 199 199 197 197 197 196 197 196 193 192 188 186 186 188 189 185 183 184 182 179 174 172 174 174 169 167 162 148 139 140 147 148 130 112 106 102 95 89 84 86 90 92 89 76 68 73 86 93 89 92
226 229 233 236 230 228 228 224 221 217 221 227 225 229 234 230 228 226 224 225 227 226 224 224 222 221 219 213 214 218 217 215 212 211 211 208 204 201 200 200 201 203 204 204 202 202 201 201 202 200 200 198 198 199 198 196 195 192 190 190 192 194 192 190 189 188 187 182 178 179 179 175 173 167 156 151 155 165 165 146 126 112 106 102 92 87 92 97 95 85 70 62 65 75 84 85 90
226 229 233 236 231 225 229 228 223 222 224 227 229 236 239 234 230 228 226 226 228 230 230 229 228 222 217 216 221 224 221 218 215 212 212 211 207 205 204 202 202 203 205 205 205 204 204 203 203 203 203 201 199 200 200 199 199 197 196 195 196 197 196 194 192 191 193 190 186 185 184 182 182 176 169 171 170 176 181 165 145 126 113 104 95 92 94 96 92 86 74 63 62 68 75 79 90
228 228 229 232 230 225 228 229 222 225 231 229 231 242 241 233 227 224 224 225 226 230 231 230 227 220 217 225 229 229 229 225 220 215 213 214 211 209 208 205 204 205 206 207 207 206 206 206 205 205 206 205 202 201 201 203 202 202 201 200 200 200 198 197 194 193 196 196 195 196 195 193 191 186 181 185 188 191 193 182 169 153 130 114 101 93 91 92 92 88 83 74 70 76 82 84 94
232 229 228 228 231 231 231 234 230 229 233 227 224 236 241 231 227 225 221 222 224 227 230 229 227 224 223 226 225 224 228 227 223 219 217 217 217 214 212 210 208 207 207 208 208 209 209 209 207 206 207 207 206 204 203 205 205 205 205 204 203 202 200 198 196 194 199 201 203 205 205 205 202 196 192 194 199 204 206 196 186 175 151 132 114 96 90 94 95 92 89 83 82 93 101 99 101
234 233 230 228 230 234 233 232 233 233 236 228 219 227 242 234 227 227 223 222 223 226 230 229 228 229 227 225 225 224 224 225 222 220 218 217 218 218 217 214 212 211 209 208 210 211 211 211 210 208 208 208 208 207 206 207 207 207 208 207 207 206 203 201 199 200 203 204 207 208 208 210 209 206 203 201 204 210 214 208 197 189 172 154 133 105 97 99 98 101 100 96 95 101 108 104 102
232 234 234 230 228 231 233 234 236 237 244 240 218 222 242 242 230 226 223 222 222 223 229 231 229 230 229 227 228 225 224 225 222 220 218 216 216 219 220 218 216 215 212 210 211 212 212 213 212 210 210 210 210 209 209 209 209 208 209 210 209 208 205 203 203 205 207 207 210 211 211 212 211 211 210 207 208 212 215 215 208 199 190 177 156 118 108 107 103 110 112 108 107 107 111 109 106
230 233 237 231 227 230 232 236 241 241 245 243 225 216 236 243 232 225 220 221 221 220 225 230 231 231 228 227 229 226 226 226 224 222 220 218 217 217 219 220 218 217 216 215 213 213 213 213 213 212 212 212 213 212 211 211 211 210 210 212 211 209 207 206 206 208 209 209 210 213 214 214 213 214 214 211 209 210 214 217 214 209 203 197 184 151 130 121 106 111 119 122 119 116 116 117 117
227 233 241 234 230 231 231 234 240 242 243 242 231 219 229 243 232 223 218 219 218 217 221 227 231 232 229 228 229 228 227 226 224 223 221 220 220 219 219 220 219 218 219 219 216 215 214 213 213 213 213 213 214 214 213 213 213 213 212 213 212 210 209 209 209 210 210 210 211 213 214 215 215 215 216 215 211 208 213 215 216 216 215 212 208 196 173 155 134 118 129 136 128 123 125 128 132
226 232 236 236 232 228 229 231 234 241 242 239 234 228 232 246 235 223 221 221 218 216 219 223 227 231 232 230 229 229 226 224 222 221 221 220 220 220 220 220 219 218 219 220 219 218 217 215 214 214 214 214 215 215 215 215 215 215 215 214 214 212 212 213 213 213 213 213 214 214 214 216 216 214 214 215 212 210 212 213 215 217 220 223 224 220 208 192 194 205 181 168 151 142 141 142 141
223 227 226 228 226 219 222 224 224 233 242 236 234 232 234 242 238 228 225 225 221 219 220 220 222 227 233 232 230 230 225 220 218 219 221 219 218 218 218 218 219 218 220 220 221 220 219 217 215 214 215 215 216 216 215 216 217 217 216 215 215 215 215 215 216 216 216 217 217 217 217 217 217 215 212 213 213 213 213 214 216 217 220 227 230 227 220 210 209 219 220 211 199 182 168 159 151
220 220 215 217 216 208 211 215 217 228 238 235 231 229 234 241 241 234 229 226 224 223 221 220 219 223 232 234 231 231 227 221 219 221 223 220 217 216 215 217 218 218 220 220 220 221 220 219 217 216 216 216 216 216 216 217 218 219 218 216 216 217 217 217 218 218 218 218 218 218 217 218 219 217 213 212 214 215 214 216 219 220 222 228 233 231 226 219 215 219 225 223 218 211 202 191 173
215 211 208 211 211 204 208 210 218 230 232 229 228 230 238 243 244 238 231 226 223 222 218 218 219 221 230 234 232 232 228 224 224 225 226 223 217 215 215 217 219 219 220 220 219 219 220 219 217 217 217 217 216 216 216 217 218 219 219 218 217 217 217 218 219 220 219 219 219 219 218 218 219 218 214 212 213 215 215 216 220 223 226 230 236 235 230 224 219 219 223 225 223 219 216 216 210
215 210 209 215 216 213 211 212 221 229 232 223 217 223 236 238 238 235 229 226 225 223 214 211 215 217 225 231 231 230 228 227 229 227 227 225 217 215 215 216 219 220 220 221 220 219 219 218 217 217 218 217 216 216 216 217 218 219 219 219 218 217 218 218 219 220 221 221 220 220 219 218 219 218 216 213 213 215 216 217 220 223 227 231 236 240 236 230 225 222 223 224 225 224 221 225 226
214 208 212 217 217 221 229 232 233 235 243 223 207 213 224 224 227 219 215 222 224 225 222 217 218 219 220 224 226 228 228 226 229 229 226 224 218 214 214 216 219 220 220 221 221 220 219 218 217 218 219 219 218 217 217 217 217 218 218 218 218 217 217 218 219 220 222 223 222 222 221 219 219 219 217 215 214 215 216 218 220 223 228 232 237 241 240 236 231 227 226 226 228 228 225 227 231
210 205 213 217 215 222 234 241 242 242 251 230 211 218 225 230 245 234 217 219 221 223 227 228 230 229 224 221 221 225 227 225 227 228 225 224 221 218 216 216 218 219 219 220 220 220 219 218 218 217 218 219 219 219 218 218 218 218 217 217 217 217 217 217 218 219 221 223 223 223 222 219 219 219 218 216 217 217 217 219 221 224 230 235 238 241 242 241 237 232 230 228 230 231 228 227 230
216 209 211 214 215 224 232 238 238 233 241 231 219 226 227 226 241 235 222 223 223 222 224 226 230 231 228 225 224 225 225 225 227 227 226 228 226 222 220 219 220 220 219 219 220 220 220 219 218 218 218 219 219 219 219 219 219 219 218 217 216 216 216 216 217 217 219 221 222 222 222 219 218 219 219 219 219 219 218 220 222 226 231 236 239 242 243 243 240 237 234 231 231 233 231 229 229
224 225 215 207 209 216 219 225 234 229 233 235 225 229 232 226 226 222 217 219 222 224 225 223 224 226 225 225 227 228 225 225 227 227 227 230 229 225 222 221 222 222 219 218 219 220 221 219 217 217 218 220 221 221 221 221 220 220 219 217 217 216 215 215 216 216 216 219 220 221 221 219 219 220 221 221 222 221 220 221 223 227 232 237 240 243 246 245 243 240 237 234 233 232 232 230 229
221 235 234 218 215 215 213 219 231 236 239 239 224 224 230 230 228 229 224 214 215 221 225 225 223 221 222 222 224 227 226 224 227 227 227 230 231 227 223 222 223 223 219 217 217 218 219 220 219 217 217 219 221 221 223 223 222 222 220 218 217 217 216 216 217 217 217 218 219 219 220 219 218 220 222 223 224 224 223 223 225 228 232 236 240 244 246 246 245 242 239 237 236 234 232 230 229
212 223 229 221 216 218 219 222 226 232 244 246 228 224 229 229 224 223 222 213 213 220 224 226 225 221 221 221 222 226 225 224 226 227 226 229 230 226 224 222 223 224 221 218 217 217 217 218 219 219 219 218 218 219 221 222 223 223 222 221 219 218 217 217 217 218 218 218 219 218 218 218 218 220 222 224 226 226 226 225 227 231 233 236 240 243 245 247 247 245 241 238 238 237 234 231 230
214 218 221 218 215 216 218 221 221 226 237 240 238 244 228 211 203 210 217 220 222 229 229 229 227 222 219 219 222 226 227 225 225 225 225 228 226 221 222 223 222 224 222 218 217 216 215 216 217 219 220 219 218 218 219 220 221 223 223 222 221 219 219 218 218 219 219 218 218 218 218 218 218 220 222 224 226 228 228 228 230 234 236 237 239 241 244 246 247 247 243 239 237 237 236 234 231